FW8513 Weather Reports


time (UTC)temp
F
wind
direction
speed
knots
gust
knots
rain 1hr
in
rain 24hr
in
rain mn
in
humidity
%
barometer
mb
20260507223040 68 347 8.7 13.0 0.00 0.00 0.00 31 1011.3
20260507221543 68 5 9.6 15.6 0.00 0.00 0.00 32 1011.5
20260507220045 68 333 4.3 15.6 0.00 0.00 0.00 29 1011.5
20260507214546 67 344 2.6 13.9 0.00 0.00 0.00 33 1011.7
20260507213050 68 334 6.1 18.2 0.00 0.00 0.00 31 1011.8
20260507211548 68 355 8.7 16.5 0.00 0.00 0.00 31 1012.0
20260507210040 68 12 8.7 15.6 0.00 0.00 0.00 32 1011.9
20260507204536 67 329 1.7 9.6 0.00 0.00 0.00 31 1012.0
20260507203043 66 304 7.8 11.3 0.00 0.00 0.00 32 1011.8
20260507201547 67 355 7.8 15.6 0.00 0.00 0.00 32 1012.0
20260507200043 66 304 8.7 13.9 0.00 0.00 0.00 34 1012.0
20260507194536 67 335 7.0 13.0 0.00 0.00 0.00 32 1012.0
20260507193040 66 36 7.8 14.8 0.00 0.00 0.00 34 1012.0
20260507191537 66 338 7.0 13.9 0.00 0.00 0.00 33 1012.0
20260507190043 65 336 7.8 13.9 0.00 0.00 0.00 35 1012.1
20260507184541 65 332 10.4 15.6 0.00 0.00 0.00 34 1012.0
20260507183101 65 297 6.1 12.2 0.00 0.00 0.00 35 1011.9
20260507181543 65 299 10.4 16.5 0.00 0.00 0.00 34 1011.9
20260507180050 65 318 4.3 12.2 0.00 0.00 0.00 36 1012.3
20260507174542 64 350 7.0 13.0 0.00 0.00 0.00 36 1012.4
20260507173054 64 352 7.0 13.0 0.00 0.00 0.00 38 1012.4
20260507171537 64 338 9.6 13.0 0.00 0.00 0.00 38 1012.7
20260507170047 63 304 8.7 13.0 0.00 0.00 0.00 40 1012.8
20260507164535 63 9 8.7 13.9 0.00 0.00 0.00 39 1013.0
20260507163043 63 9 7.8 12.2 0.00 0.00 0.00 40 1012.8
20260507161550 62 296 6.1 10.4 0.00 0.00 0.00 41 1012.8
20260507160036 61 0 1.7 6.1 0.00 0.00 0.00 43 1012.9
20260507154535 59 286 0.9 5.2 0.00 0.00 0.00 46 1012.8
20260507153045 57 278 2.6 7.0 0.00 0.00 0.00 46 1012.8
20260507151542 54 263 2.6 7.0 0.00 0.00 0.00 49 1012.7
20260507150039 52 284 2.6 6.1 0.00 0.00 0.00 52 1012.5
20260507144539 51 119 2.6 3.5 0.00 0.00 0.00 55 1012.3
20260507143056 50 94 2.6 3.5 0.00 0.00 0.00 57 1012.3
20260507141542 49 90 1.7 3.5 0.00 0.00 0.00 61 1012.2
20260507140039 48 0 0.0 2.6 0.00 0.00 0.00 58 1012.3
20260507134537 47 49 1.7 3.5 0.00 0.00 0.00 58 1012.2
20260507133047 46 46 1.7 2.6 0.00 0.00 0.00 59 1012.1
20260507131545 45 46 0.9 4.3 0.00 0.00 0.00 59 1012.0
20260507130058 46 34 4.3 7.8 0.00 0.00 0.00 57 1012.1
20260507124541 46 0 0.0 0.0 0.00 0.00 0.00 57 1011.8
20260507123035 47 0 0.0 2.6 0.00 0.00 0.00 55 1011.4
20260507121535 47 13 1.7 4.3 0.00 0.00 0.00 56 1011.7
20260507120042 47 319 2.6 4.3 0.00 0.00 0.00 54 1011.6
20260507114540 47 236 0.0 2.6 0.00 0.00 0.00 53 1011.3
20260507113039 46 0 0.0 2.6 0.00 0.00 0.00 52 1011.4
20260507111536 47 0 0.9 4.3 0.00 0.00 0.00 51 1011.4
20260507110055 47 246 2.6 6.1 0.00 0.00 0.00 51 1011.3
20260507104549 46 239 4.3 6.1 0.00 0.00 0.00 52 1011.1
20260507103106 45 219 1.7 4.3 0.00 0.00 0.00 51 1010.9
20260507101540 46 219 2.6 6.1 0.00 0.00 0.00 51 1010.8
20260507100048 46 223 3.5 7.0 0.00 0.00 0.00 52 1010.8
20260507094538 46 237 4.3 6.1 0.00 0.00 0.00 52 1010.6
20260507093043 47 175 2.6 4.3 0.00 0.00 0.00 49 1010.4
20260507091544 47 173 0.9 2.6 0.00 0.00 0.00 48 1010.4
20260507090039 47 0 0.0 4.3 0.00 0.00 0.00 48 1010.0
20260507084545 48 0 0.0 2.6 0.00 0.00 0.00 47 1010.0
20260507083035 48 172 0.9 5.2 0.00 0.00 0.00 47 1009.8
20260507081536 49 171 4.3 7.0 0.00 0.00 0.00 49 1009.6
20260507080047 50 163 4.3 6.1 0.00 0.00 0.00 52 1009.3
20260507074538 51 103 0.9 6.1 0.00 0.00 0.00 51 1009.4
20260507073042 52 99 0.9 6.1 0.00 0.00 0.00 50 1009.4
20260507071535 53 69 3.5 11.3 0.00 0.00 0.00 50 1009.4
20260507070051 53 49 3.5 11.3 0.00 0.00 0.00 48 1009.0
20260507064549 51 117 3.5 8.7 0.00 0.00 0.00 50 1008.6
20260507063037 51 112 2.6 7.0 0.00 0.00 0.00 47 1008.3
20260507061537 53 360 4.3 8.7 0.00 0.00 0.00 45 1007.9
20260507060037 55 340 6.1 11.3 0.00 0.00 0.00 45 1007.6
20260507054547 58 329 10.4 17.4 0.00 0.00 0.00 43 1007.5
20260507053046 60 339 10.4 19.1 0.00 0.00 0.00 43 1007.7
20260507051543 60 348 5.2 13.9 0.00 0.00 0.00 43 1007.3
20260507050043 62 311 11.3 16.5 0.00 0.00 0.00 41 1007.0
20260507044539 63 294 12.2 18.2 0.00 0.00 0.00 39 1006.8
20260507043035 63 287 12.2 19.1 0.00 0.00 0.00 39 1006.9
20260507041555 64 290 13.9 17.4 0.00 0.00 0.00 39 1007.0
20260507040042 64 284 13.0 19.1 0.00 0.00 0.00 38 1006.9
20260507034536 64 282 13.0 18.2 0.00 0.00 0.00 38 1006.8
20260507033038 64 286 10.4 16.5 0.00 0.00 0.00 38 1006.8
20260507031543 64 289 9.6 14.8 0.00 0.00 0.00 38 1007.0
20260507030043 63 301 4.3 10.4 0.00 0.00 0.00 38 1007.2
20260507024541 63 153 1.7 5.2 0.00 0.00 0.00 41 1007.2
20260507023037 64 155 2.6 7.0 0.00 0.00 0.00 40 1007.3
20260507021538 65 0 0.0 6.1 0.00 0.00 0.00 39 1007.3
20260507020045 66 60 2.6 12.2 0.00 0.00 0.00 38 1007.3
20260507014552 67 22 4.3 14.8 0.00 0.00 0.00 39 1007.2
20260507013043 69 331 3.5 10.4 0.00 0.00 0.00 24 1007.2
20260507011542 69 40 0.9 4.3 0.00 0.00 0.00 22 1006.8
20260507010042 70 32 1.7 4.3 0.00 0.00 0.00 21 1007.1
20260507004536 70 28 1.7 5.2 0.00 0.00 0.00 20 1007.2
20260507003036 71 355 3.5 7.8 0.00 0.00 0.00 21 1007.3
20260507001553 72 5 4.3 9.6 0.00 0.00 0.00 20 1007.3
20260507000038 72 16 7.0 13.9 0.00 0.00 0.00 20 1007.4
20260506234601 72 355 7.8 20.9 0.00 0.00 0.00 19 1007.6
20260506233039 73 334 8.7 18.2 0.00 0.00 0.00 19 1007.7
20260506231537 72 318 9.6 18.2 0.00 0.00 0.00 20 1008.0
20260506230052 72 299 7.8 17.4 0.00 0.00 0.00 20 1008.1
20260506224540 72 328 11.3 19.1 0.00 0.00 0.00 19 1008.0